Back to catalog

STARLINK-35389

AliveCommunicationsVLEO
NORAD 66434·PAYLOAD·🇺🇸 United States

Launched Nov 11, 2025 from Cape Canaveral Space Force Station

Loading…

Next Passes (next 24 hours)

TLE

FreshSource: CelesTrak SupGP

Epoch: Sep 14, 2026, 14:46 UTC

1 66434C 25259N   26257.61576389  .00034380  00000+0  12453-2 0  2574
2 66434  42.9999 287.1034 0001488 274.8003 257.5847 15.27560548    19

Track STARLINK-35389 in real time with AllMySat

Download on the App Store